SCP
0 0 0 0 0 0 0 0 0 0 0 0 1 1 1 1 1 1 1 0 0 0 0 0 0 1 1 1 0 0 0 0 0 0 0 0 0 0 0 -0 -0 -0 -0
0 0 0 0 0 0 0 0 0 0 0 0 0 0 0 1 1 1 1 0 0 0 0 0 0 0 1 1 1 1 0 0 0 0 0 0 0 0 0 0 0 -0 -0
0 0 0 0 0 0 0 0 0 0 0 0 0 0 0 0 0 0 0 0 0 0 0 -0 -0 0 0 0 1 1 1 0 0 0 0 0 0 0 0 0 0 0 0
0 0 0 0 0 0 0 0 0 0 0 0 0 0 0 0 0 0 0 0 0 0 0 0 0 0 0 0 0 1 1 1 1 0 0 0 0 0 0 0 0 0 0
0 0 0 0 0 0 0 0 0 0 0 0 0 0 0 0 0 0 0 0 0 0 0 0 0 0 0 0 0 0 1 1 1 1 0 0 0 0 0 0 0 0 0
0 0 0 0 0 0 0 0 0 0 0 0 0 0 0 0 0 0 0 0 0 0 0 0 0 0 0 0 0 1 0 -0 0 0 0 1 0 0 0 0 0 0 0
0 0 0 0 0 0 0 0 0 0 0 0 0 0 0 0 0 0 0 0 0 0 0 0 0 0 0 0 0 0 0 0 -0 0 0 0 0 0 0 0 0 0 0
0 0 0 0 0 0 0 0 0 0 0 0 0 0 0 0 0 0 0 0 0 0 0 0 0 0 0 0 0 0 0 0 -0 -0 -0 0 0 0 0 0 0 0 0
0 0 0 0 0 0 0 0 0 0 0 0 0 0 0 0 0 0 0 0 0 0 0 0 0 0 0 0 0 0 0 0 -0 -0 -0 0 0 0 0 0 0 0 0
0 0 0 0 0 0 0 0 0 0 0 0 0 0 0 0 0 0 0 0 0 0 0 0 0 0 0 0 0 0 0 0 0 0 -0 -0 0 0 0 0 0 0 0
0 0 0 0 0 0 0 0 0 0 0 0 0 0 0 0 0 0 0 0 0 0 0 0 0 0 0 0 0 0 0 0 0 0 0 0 0 0 0 0 0 0 0
0 0 0 0 0 0 0 0 0 0 0 0 0 0 0 0 0 0 0 0 0 0 0 0 0 0 0 0 0 0 0 0 0 0 0 0 0 0 -0 0 0 0 0
0 0 0 0 0 0 0 0 0 0 0 0 0 0 0 0 0 0 0 0 0 0 0 0 0 0 0 0 0 0 0 0 0 0 0 0 0 0 0 -0 0 0 0
0 0 0 0 0 0 0 0 0 0 0 0 0 0 0 0 0 0 0 0 0 0 0 0 0 0 0 0 0 0 0 0 0 0 0 0 0 0 0 0 0 0 -0
0 0 0 0 0 0 0 0 0 0 0 0 0 0 0 0 0 0 0 0 0 -0 -0 -0 0 0 0 0 0 0 0 0 0 0 0 0 0 0 0 0 0 0 0
0 0 0 0 0 0 0 0 0 0 0 0 0 0 0 0 0 0 0 0 0 0 -0 0 0 0 0 0 0 0 0 0 0 0 0 0 0 0 0 0 0 0 -0
0 0 0 0 0 0 0 0 0 0 0 0 0 0 0 0 0 0 0 0 0 0 0 0 0 0 0 0 0 0 0 0 0 0 0 0 0 0 0 0 0 0 0
0 0 0 0 0 0 0 0 0 0 0 0 0 0 0 0 0 0 0 0 0 0 0 0 0 0 0 0 0 0 0 0 0 0 0 0 0 0 0 0 0 0 0
0 0 0 0 0 0 0 0 0 0 0 0 0 0 0 0 0 0 0 0 0 0 0 0 0 0 0 0 0 0 0 0 0 0 0 0 0 0 0 0 0 0 0
0 0 0 0 0 0 0 0 0 0 0 0 0 0 0 -0 0 0 0 0 0 0 0 0 0 0 0 0 0 0 0 0 0 0 0 0 0 0 0 0 0 0 0
0 0 0 0 0 0 0 0 0 0 0 -0 -0 -0 -0 -0 -0 0 0 0 0 0 0 0 0 0 0 0 0 0 0 0 0 0 0 0 0 0 0 0 0 0 0
0 0 0 0 0 0 -0 -0 0 0 -0 -0 -0 -0 -0 -0 -0 -0 -0 0 0 0 0 0 0 0 0 0 0 0 0 0 0 0 0 0 0 0 0 0 0 0 0
0 0 0 0 0 0 -0 -0 -0 0 0 0 0 -0 -0 -0 -0 -0 -0 -0 0 0 0 -0 -0 -0 0 0 0 0 0 0 0 0 0 0 0 0 0 0 0 0 0
0 0 0 0 0 -0 -0 -0 -0 0 0 0 0 -0 0 -0 -0 -0 -0 0 0 0 0 0 -0 -0 0 0 0 -0 0 0 -0 -0 -0 -0 0 0 0 0 0 0 0
0 0 0 0 0 0 -0 -0 0 0 0 0 0 0 0 0 -0 -0 -0 0 0 0 0 -0 -0 -0 0 -0 0 0 0 -0 -0 -0 -0 -0 -0 0 0 0 0 0 0
0 0 0 0 -0 0 -0 -0 0 0 0 0 0 0 -0 -0 -0 -0 0 0 0 0 0 0 0 0 0 0 -0 -0 -0 -0 -0 -0 -0 -0 -0 -0 0 0 0 0 0
Wind_Speed_500mb
33 35 37 39 40 35 35 38 42 44 47 53 56 55 54 63 67 68 65 62 61 63 62 64 74 70 63 56 52 58 56 58 57 58 57 55 55 52 50 50 47 45 44
30 28 29 33 37 41 40 41 43 45 46 47 49 53 56 57 59 64 69 72 68 67 67 70 75 85 68 65 60 60 60 59 60 61 61 59 59 59 56 56 51 51 48
24 28 34 39 46 54 56 50 50 52 51 51 51 50 51 52 54 64 59 61 70 62 75 84 80 82 82 70 64 68 64 62 62 63 65 64 62 63 62 61 58 53 51
28 30 31 35 37 40 53 61 63 59 57 57 56 52 51 47 43 44 50 48 45 44 74 69 54 73 62 83 71 64 67 64 62 63 66 68 67 66 66 66 66 62 57
18 23 25 29 35 38 40 46 61 69 65 63 56 52 46 40 38 34 34 30 32 43 46 68 66 66 61 67 54 58 65 61 62 65 68 70 72 70 71 71 71 70 66
19 20 22 25 29 33 39 35 38 42 52 57 58 53 47 40 31 27 26 30 21 31 36 34 61 53 53 39 48 55 60 62 69 73 71 70 75 74 73 73 74 74 74
20 20 20 21 23 28 30 33 34 37 39 43 48 47 39 36 29 22 26 23 23 23 26 31 42 52 60 82 76 45 67 58 72 79 78 72 75 78 77 76 75 79 80
23 24 24 23 23 23 24 27 32 32 36 32 30 27 19 22 28 28 27 23 22 26 25 25 22 28 32 47 62 56 107 74 86 81 74 73 78 80 79 80 79 80 83
29 31 32 33 33 33 32 31 29 28 33 29 15 11 9 9 24 25 34 35 33 27 29 31 35 33 22 24 32 48 59 61 80 87 87 92 90 80 80 85 80 81 84
24 29 31 32 34 34 35 33 32 29 29 31 17 11 17 20 11 28 26 25 33 38 37 35 36 33 30 24 24 25 32 51 81 82 89 81 70 86 81 89 83 80 82
24 24 26 28 29 30 30 28 27 26 23 23 20 22 18 21 24 36 44 40 45 42 35 41 40 40 30 29 19 23 35 34 55 60 78 95 95 99 87 83 84 80 82
32 31 28 27 27 26 27 24 20 21 24 25 25 22 22 19 28 32 45 62 60 55 52 48 31 25 37 42 40 29 27 20 27 51 64 80 86 91 95 89 80 80 81
33 35 35 32 30 28 24 22 21 20 20 22 24 23 23 29 35 39 47 57 56 64 55 29 30 16 19 30 41 48 40 33 42 44 59 65 86 89 95 115 115 93 82
30 34 36 33 27 24 21 20 18 17 14 16 18 18 20 25 30 34 39 44 52 38 38 17 32 23 29 30 40 44 45 45 45 49 47 65 63 80 98 109 129 117 112
22 25 30 29 25 21 19 22 21 18 18 19 17 13 10 10 13 19 24 28 24 18 29 29 29 35 44 43 39 33 36 36 38 49 54 46 57 65 69 96 101 123 133
17 22 26 22 15 17 18 17 19 18 17 22 20 15 10 8 13 11 12 14 16 20 18 27 33 29 37 42 41 35 31 32 28 29 38 54 51 50 62 67 79 103 136
17 19 22 18 9 12 15 17 19 18 17 19 20 21 19 15 19 21 16 12 10 9 16 22 19 28 29 29 26 26 23 26 29 34 26 28 44 49 54 54 63 58 61
19 20 21 15 9 11 14 18 18 17 15 18 23 14 19 20 20 26 27 23 17 17 17 19 21 25 26 27 23 19 13 19 23 34 28 32 32 33 41 47 52 57 51
18 20 18 12 8 10 13 19 22 21 18 18 22 25 22 23 25 26 28 31 27 24 20 19 25 30 34 33 24 23 17 9 16 21 26 26 29 31 33 34 37 43 52
15 17 15 11 8 10 11 17 21 24 25 24 25 27 30 31 30 26 28 29 30 32 31 33 37 40 44 46 41 46 34 24 2 4 10 23 26 27 31 37 40 41 49
11 13 13 10 12 14 18 16 19 20 24 24 27 30 34 31 29 26 22 28 34 36 37 39 43 46 53 56 62 54 51 44 22 21 30 20 17 15 23 31 40 43 45
6 9 13 15 13 20 19 21 20 21 24 28 30 31 32 32 30 27 28 29 29 38 41 43 44 49 53 55 54 55 56 62 58 31 46 36 38 37 21 15 22 33 44
11 12 16 17 14 15 12 21 22 22 24 29 32 36 35 34 32 30 29 28 30 34 39 40 43 46 47 50 49 51 49 47 42 43 49 47 41 44 29 9 10 19 27
12 13 17 19 18 16 14 21 21 21 22 26 33 37 38 40 36 34 30 31 34 35 37 37 37 38 37 39 43 47 45 41 30 24 49 53 57 48 28 5 39 39 29
13 13 16 17 20 21 16 18 18 21 23 27 31 40 40 42 42 38 33 35 37 40 38 36 34 32 35 36 40 41 50 55 54 31 51 58 66 71 37 9 33 48 37
10 13 12 15 19 22 21 17 18 20 22 27 30 34 40 41 40 39 41 43 46 47 38 32 31 33 38 43 46 51 50 53 55 29 59 64 64 69 46 26 67 62 54
Wind_Direction_500mb
248 250 258 263 265 265 269 271 276 280 279 277 278 275 268 266 264 263 263 262 255 256 257 256 250 247 246 244 251 244 237 229 224 225 224 222 220 220 217 217 216 214 213
250 256 259 271 268 265 270 278 275 274 275 278 280 279 274 270 269 267 263 262 261 256 258 248 248 251 245 246 244 245 240 234 228 228 226 226 224 223 221 220 222 220 219
272 271 273 270 279 287 282 280 285 287 282 278 279 279 281 284 280 272 272 271 270 266 257 236 242 259 236 236 243 240 240 236 233 229 230 228 228 226 224 224 223 223 222
268 275 278 278 270 269 275 287 286 288 290 284 281 278 274 279 286 279 279 275 260 251 241 243 262 255 226 223 242 237 238 239 236 235 232 232 231 231 227 226 226 226 225
304 290 285 280 280 276 275 277 287 289 291 288 285 282 280 274 275 280 282 276 261 253 253 236 258 246 255 274 279 235 233 241 242 240 238 235 235 233 232 229 229 229 230
321 314 308 297 290 283 283 280 277 284 289 290 288 287 284 282 270 262 260 259 254 253 258 275 248 253 254 269 309 261 211 232 237 245 239 237 239 236 236 234 232 232 232
339 331 325 319 309 299 293 284 285 289 286 288 291 287 285 277 268 246 242 239 228 247 257 254 256 263 259 262 258 266 208 265 241 239 241 238 242 242 238 238 235 234 234
322 321 318 315 317 316 311 307 308 300 293 300 309 306 298 259 260 242 224 217 219 222 240 254 262 274 271 266 257 249 226 264 240 238 242 242 242 241 244 239 238 237 238
318 313 311 307 304 300 299 305 309 313 309 310 329 302 307 301 296 223 224 240 245 237 240 253 256 259 271 267 269 263 255 251 238 243 249 246 241 240 243 245 239 239 240
323 319 319 314 308 304 302 302 301 301 301 305 313 229 255 267 296 300 260 233 238 255 262 261 265 267 277 286 278 288 287 264 249 248 247 243 243 234 239 242 243 240 240
336 330 327 324 324 324 320 314 309 304 303 304 297 297 288 266 260 262 286 284 279 280 281 273 269 271 270 273 287 286 277 287 280 265 251 240 253 238 239 240 242 241 241
351 350 347 343 339 335 336 337 325 313 308 303 294 285 275 279 256 263 271 281 297 302 296 308 306 281 262 259 260 273 258 277 290 274 261 245 244 239 236 242 245 244 243
4 5 359 356 351 352 350 347 345 334 328 313 304 291 272 257 262 270 274 282 291 296 313 323 300 314 284 257 254 256 257 284 278 284 270 255 239 235 240 245 247 250 241
19 15 11 7 6 7 6 7 358 353 343 322 309 296 276 261 258 261 271 284 296 301 310 310 308 301 290 279 278 259 255 263 282 278 296 250 246 243 242 242 243 242 241
23 19 17 14 19 12 21 31 30 27 18 3 349 334 307 301 292 270 270 277 291 313 318 318 314 303 301 294 290 283 266 258 269 274 264 261 248 247 247 242 241 235 240
9 16 20 17 25 25 18 27 32 34 21 10 21 18 22 26 26 356 308 294 272 270 276 281 315 315 302 306 306 294 281 267 266 275 267 263 282 276 246 251 251 242 233
355 360 9 12 14 23 13 23 24 22 21 12 29 32 39 42 45 27 21 16 18 356 302 322 336 315 319 323 319 302 288 272 251 260 260 246 256 260 270 262 258 252 246
335 350 6 10 19 19 13 9 17 14 6 9 22 20 29 38 41 38 33 39 45 35 20 4 358 360 1 356 349 342 321 277 266 255 261 256 259 251 255 262 273 260 247
341 352 3 9 30 32 18 18 23 25 20 22 21 22 21 27 34 30 29 36 41 49 46 34 27 22 21 14 25 28 22 327 258 251 254 254 244 254 254 260 254 259 252
337 354 13 28 58 52 26 22 26 30 38 39 35 34 29 25 25 24 25 29 32 39 36 32 31 25 26 27 27 19 24 17 78 31 322 260 258 251 249 250 252 248 248
342 12 32 54 72 63 45 42 43 43 45 45 44 43 41 35 27 31 30 26 26 29 28 28 25 23 22 23 21 16 12 14 13 22 16 1 350 282 257 250 249 250 248
35 51 56 67 77 70 51 36 45 46 50 50 51 49 49 44 36 28 33 25 21 26 28 29 26 26 20 17 16 15 12 10 6 0 5 8 14 12 351 291 264 261 252
85 81 69 65 75 73 48 35 39 42 46 48 50 47 45 47 44 36 32 29 24 30 35 29 26 26 20 12 7 11 18 17 6 344 342 355 359 18 13 10 330 303 287
98 80 71 63 62 71 51 46 43 49 51 50 48 48 42 37 48 43 42 38 37 35 36 32 27 25 21 12 13 11 9 15 25 351 353 356 351 356 15 30 14 356 340
104 85 80 74 58 66 69 58 48 48 52 56 56 51 42 39 39 44 44 49 50 47 43 37 34 32 24 19 12 3 9 8 13 16 353 1 352 344 356 328 346 349 346
93 79 80 75 71 63 60 71 58 56 60 62 56 54 51 44 39 39 37 40 40 37 38 38 37 32 29 27 24 22 18 16 11 13 356 357 353 355 340 334 336 343 339
Wind_Speed_850mb
33 35 37 39 40 35 35 38 42 44 47 53 56 55 54 63 67 68 65 62 61 63 62 64 74 70 63 56 52 58 56 58 57 58 57 55 55 52 50 50 47 45 44
30 28 29 33 37 41 40 41 43 45 46 47 49 53 56 57 59 64 69 72 68 67 67 70 75 85 68 65 60 60 60 59 60 61 61 59 59 59 56 56 51 51 48
24 28 34 39 46 54 56 50 50 52 51 51 51 50 51 52 54 64 59 61 70 62 75 84 80 82 82 70 64 68 64 62 62 63 65 64 62 63 62 61 58 53 51
28 30 31 35 37 40 53 61 63 59 57 57 56 52 51 47 43 44 50 48 45 44 74 69 54 73 62 83 71 64 67 64 62 63 66 68 67 66 66 66 66 62 57
18 23 25 29 35 38 40 46 61 69 65 63 56 52 46 40 38 34 34 30 32 43 46 68 66 66 61 67 54 58 65 61 62 65 68 70 72 70 71 71 71 70 66
19 20 22 25 29 33 39 35 38 42 52 57 58 53 47 40 31 27 26 30 21 31 36 34 61 53 53 39 48 55 60 62 69 73 71 70 75 74 73 73 74 74 74
20 20 20 21 23 28 30 33 34 37 39 43 48 47 39 36 29 22 26 23 23 23 26 31 42 52 60 82 76 45 67 58 72 79 78 72 75 78 77 76 75 79 80
23 24 24 23 23 23 24 27 32 32 36 32 30 27 19 22 28 28 27 23 22 26 25 25 22 28 32 47 62 56 107 74 86 81 74 73 78 80 79 80 79 80 83
29 31 32 33 33 33 32 31 29 28 33 29 15 11 9 9 24 25 34 35 33 27 29 31 35 33 22 24 32 48 59 61 80 87 87 92 90 80 80 85 80 81 84
24 29 31 32 34 34 35 33 32 29 29 31 17 11 17 20 11 28 26 25 33 38 37 35 36 33 30 24 24 25 32 51 81 82 89 81 70 86 81 89 83 80 82
24 24 26 28 29 30 30 28 27 26 23 23 20 22 18 21 24 36 44 40 45 42 35 41 40 40 30 29 19 23 35 34 55 60 78 95 95 99 87 83 84 80 82
32 31 28 27 27 26 27 24 20 21 24 25 25 22 22 19 28 32 45 62 60 55 52 48 31 25 37 42 40 29 27 20 27 51 64 80 86 91 95 89 80 80 81
33 35 35 32 30 28 24 22 21 20 20 22 24 23 23 29 35 39 47 57 56 64 55 29 30 16 19 30 41 48 40 33 42 44 59 65 86 89 95 115 115 93 82
30 34 36 33 27 24 21 20 18 17 14 16 18 18 20 25 30 34 39 44 52 38 38 17 32 23 29 30 40 44 45 45 45 49 47 65 63 80 98 109 129 117 112
22 25 30 29 25 21 19 22 21 18 18 19 17 13 10 10 13 19 24 28 24 18 29 29 29 35 44 43 39 33 36 36 38 49 54 46 57 65 69 96 101 123 133
17 22 26 22 15 17 18 17 19 18 17 22 20 15 10 8 13 11 12 14 16 20 18 27 33 29 37 42 41 35 31 32 28 29 38 54 51 50 62 67 79 103 136
17 19 22 18 9 12 15 17 19 18 17 19 20 21 19 15 19 21 16 12 10 9 16 22 19 28 29 29 26 26 23 26 29 34 26 28 44 49 54 54 63 58 61
19 20 21 15 9 11 14 18 18 17 15 18 23 14 19 20 20 26 27 23 17 17 17 19 21 25 26 27 23 19 13 19 23 34 28 32 32 33 41 47 52 57 51
18 20 18 12 8 10 13 19 22 21 18 18 22 25 22 23 25 26 28 31 27 24 20 19 25 30 34 33 24 23 17 9 16 21 26 26 29 31 33 34 37 43 52
15 17 15 11 8 10 11 17 21 24 25 24 25 27 30 31 30 26 28 29 30 32 31 33 37 40 44 46 41 46 34 24 2 4 10 23 26 27 31 37 40 41 49
11 13 13 10 12 14 18 16 19 20 24 24 27 30 34 31 29 26 22 28 34 36 37 39 43 46 53 56 62 54 51 44 22 21 30 20 17 15 23 31 40 43 45
6 9 13 15 13 20 19 21 20 21 24 28 30 31 32 32 30 27 28 29 29 38 41 43 44 49 53 55 54 55 56 62 58 31 46 36 38 37 21 15 22 33 44
11 12 16 17 14 15 12 21 22 22 24 29 32 36 35 34 32 30 29 28 30 34 39 40 43 46 47 50 49 51 49 47 42 43 49 47 41 44 29 9 10 19 27
12 13 17 19 18 16 14 21 21 21 22 26 33 37 38 40 36 34 30 31 34 35 37 37 37 38 37 39 43 47 45 41 30 24 49 53 57 48 28 5 39 39 29
13 13 16 17 20 21 16 18 18 21 23 27 31 40 40 42 42 38 33 35 37 40 38 36 34 32 35 36 40 41 50 55 54 31 51 58 66 71 37 9 33 48 37
10 13 12 15 19 22 21 17 18 20 22 27 30 34 40 41 40 39 41 43 46 47 38 32 31 33 38 43 46 51 50 53 55 29 59 64 64 69 46 26 67 62 54
Wind_Direction_850mb
248 250 258 263 265 265 269 271 276 280 279 277 278 275 268 266 264 263 263 262 255 256 257 256 250 247 246 244 251 244 237 229 224 225 224 222 220 220 217 217 216 214 213
250 256 259 271 268 265 270 278 275 274 275 278 280 279 274 270 269 267 263 262 261 256 258 248 248 251 245 246 244 245 240 234 228 228 226 226 224 223 221 220 222 220 219
272 271 273 270 279 287 282 280 285 287 282 278 279 279 281 284 280 272 272 271 270 266 257 236 242 259 236 236 243 240 240 236 233 229 230 228 228 226 224 224 223 223 222
268 275 278 278 270 269 275 287 286 288 290 284 281 278 274 279 286 279 279 275 260 251 241 243 262 255 226 223 242 237 238 239 236 235 232 232 231 231 227 226 226 226 225
304 290 285 280 280 276 275 277 287 289 291 288 285 282 280 274 275 280 282 276 261 253 253 236 258 246 255 274 279 235 233 241 242 240 238 235 235 233 232 229 229 229 230
321 314 308 297 290 283 283 280 277 284 289 290 288 287 284 282 270 262 260 259 254 253 258 275 248 253 254 269 309 261 211 232 237 245 239 237 239 236 236 234 232 232 232
339 331 325 319 309 299 293 284 285 289 286 288 291 287 285 277 268 246 242 239 228 247 257 254 256 263 259 262 258 266 208 265 241 239 241 238 242 242 238 238 235 234 234
322 321 318 315 317 316 311 307 308 300 293 300 309 306 298 259 260 242 224 217 219 222 240 254 262 274 271 266 257 249 226 264 240 238 242 242 242 241 244 239 238 237 238
318 313 311 307 304 300 299 305 309 313 309 310 329 302 307 301 296 223 224 240 245 237 240 253 256 259 271 267 269 263 255 251 238 243 249 246 241 240 243 245 239 239 240
323 319 319 314 308 304 302 302 301 301 301 305 313 229 255 267 296 300 260 233 238 255 262 261 265 267 277 286 278 288 287 264 249 248 247 243 243 234 239 242 243 240 240
336 330 327 324 324 324 320 314 309 304 303 304 297 297 288 266 260 262 286 284 279 280 281 273 269 271 270 273 287 286 277 287 280 265 251 240 253 238 239 240 242 241 241
351 350 347 343 339 335 336 337 325 313 308 303 294 285 275 279 256 263 271 281 297 302 296 308 306 281 262 259 260 273 258 277 290 274 261 245 244 239 236 242 245 244 243
4 5 359 356 351 352 350 347 345 334 328 313 304 291 272 257 262 270 274 282 291 296 313 323 300 314 284 257 254 256 257 284 278 284 270 255 239 235 240 245 247 250 241
19 15 11 7 6 7 6 7 358 353 343 322 309 296 276 261 258 261 271 284 296 301 310 310 308 301 290 279 278 259 255 263 282 278 296 250 246 243 242 242 243 242 241
23 19 17 14 19 12 21 31 30 27 18 3 349 334 307 301 292 270 270 277 291 313 318 318 314 303 301 294 290 283 266 258 269 274 264 261 248 247 247 242 241 235 240
9 16 20 17 25 25 18 27 32 34 21 10 21 18 22 26 26 356 308 294 272 270 276 281 315 315 302 306 306 294 281 267 266 275 267 263 282 276 246 251 251 242 233
355 360 9 12 14 23 13 23 24 22 21 12 29 32 39 42 45 27 21 16 18 356 302 322 336 315 319 323 319 302 288 272 251 260 260 246 256 260 270 262 258 252 246
335 350 6 10 19 19 13 9 17 14 6 9 22 20 29 38 41 38 33 39 45 35 20 4 358 360 1 356 349 342 321 277 266 255 261 256 259 251 255 262 273 260 247
341 352 3 9 30 32 18 18 23 25 20 22 21 22 21 27 34 30 29 36 41 49 46 34 27 22 21 14 25 28 22 327 258 251 254 254 244 254 254 260 254 259 252
337 354 13 28 58 52 26 22 26 30 38 39 35 34 29 25 25 24 25 29 32 39 36 32 31 25 26 27 27 19 24 17 78 31 322 260 258 251 249 250 252 248 248
342 12 32 54 72 63 45 42 43 43 45 45 44 43 41 35 27 31 30 26 26 29 28 28 25 23 22 23 21 16 12 14 13 22 16 1 350 282 257 250 249 250 248
35 51 56 67 77 70 51 36 45 46 50 50 51 49 49 44 36 28 33 25 21 26 28 29 26 26 20 17 16 15 12 10 6 0 5 8 14 12 351 291 264 261 252
85 81 69 65 75 73 48 35 39 42 46 48 50 47 45 47 44 36 32 29 24 30 35 29 26 26 20 12 7 11 18 17 6 344 342 355 359 18 13 10 330 303 287
98 80 71 63 62 71 51 46 43 49 51 50 48 48 42 37 48 43 42 38 37 35 36 32 27 25 21 12 13 11 9 15 25 351 353 356 351 356 15 30 14 356 340
104 85 80 74 58 66 69 58 48 48 52 56 56 51 42 39 39 44 44 49 50 47 43 37 34 32 24 19 12 3 9 8 13 16 353 1 352 344 356 328 346 349 346
93 79 80 75 71 63 60 71 58 56 60 62 56 54 51 44 39 39 37 40 40 37 38 38 37 32 29 27 24 22 18 16 11 13 356 357 353 355 340 334 336 343 339